Location: Boncourt
(49.6160°N, 3.9448°E)
Time: 16:17:03
(UTC+00:00)

Cosmos 2333 Rocket - Pass Details

Date: 09 February 2023
Orbit: 837 x 864 km, 70.8° (Epoch: 25 March)

Event Time Altitude Azimuth Distance (km) Brightness Sun altitude
Rises 18:41:51 0° 228° (SW) 3,387 6.1 -18.0°
Reaches altitude 10° 18:44:23 10° 235° (SW) 2,459 5.4 -18.5°
Maximum altitude 18:49:48 45° 308° (NW) 1,140 3.2 -19.3°
Drops below altitude 10° 18:55:16 10° 21° (NNE) 2,489 4.4 -20.2°
Enters shadow 18:56:32 - 25° (NNE) 2,943 4.8 -20.4°
